Wind_Speed
10 9 8 9 9 9 9 10 10 11 12 13 13 14 14 16 18 19 18 18 18 18 18 19 20 20 20 19 18 18 18 18 17 16 15 14 12 11 11 10 9 8 8 7
10 10 9 9 9 10 10 10 11 11 11 12 13 14 14 15 16 17 18 18 18 18 17 17 19 20 20 20 20 19 19 19 18 17 16 15 13 12 12 11 10 10 9 9
12 11 10 10 10 10 11 11 11 10 11 12 13 13 14 14 15 16 17 17 17 17 17 17 18 21 21 21 20 20 19 19 19 18 17 16 15 14 14 13 12 11 11 11
13 12 11 10 10 10 10 11 11 11 11 12 12 13 13 14 14 15 16 17 17 17 18 18 18 18 20 21 20 19 19 19 18 19 18 17 16 16 15 14 14 13 12 12
14 13 11 11 11 10 10 11 11 11 11 11 11 11 12 13 14 14 15 16 17 17 18 18 18 18 19 20 20 19 18 18 18 19 19 18 18 17 16 16 15 15 14 14
16 15 12 12 12 11 11 11 10 10 10 10 11 11 12 13 13 13 14 14 15 16 17 18 18 18 19 19 19 18 19 19 18 18 18 18 17 17 17 17 16 16 16 16
16 15 13 13 12 12 12 12 12 11 10 10 10 11 12 12 13 13 13 14 15 15 16 16 16 17 18 19 19 19 19 19 18 18 18 18 18 18 18 18 18 18 18 18
17 16 15 14 12 13 13 13 13 13 12 11 11 11 11 11 12 13 13 14 14 15 15 16 17 17 18 19 19 20 20 20 19 19 19 19 19 18 18 18 18 18 18 18
18 16 16 15 15 14 14 14 14 14 13 13 12 11 11 12 13 13 14 14 14 15 15 15 16 18 19 18 19 20 20 20 20 20 20 20 20 20 20 20 20 20 20 20
20 18 18 17 17 16 15 15 14 14 14 14 13 13 12 12 12 14 14 14 14 15 16 16 17 18 18 19 20 20 20 20 20 20 20 21 21 21 20 21 21 21 21 22
21 20 20 19 18 17 16 16 16 15 15 15 14 14 13 13 13 14 14 15 16 16 16 17 17 18 19 19 19 20 20 20 20 20 20 20 20 21 21 21 22 22 23 23
22 22 22 20 19 19 17 17 16 15 15 15 14 14 14 14 14 15 15 15 16 17 17 18 18 19 20 20 20 20 21 21 22 22 22 22 22 22 23 23 24 24 25 25
25 24 23 22 21 20 20 18 17 16 16 15 15 15 15 15 15 15 16 16 16 17 17 18 18 19 20 21 22 22 22 23 23 24 24 24 24 24 25 25 25 26 27 27
27 26 24 23 22 22 21 21 20 19 18 17 17 16 16 16 16 16 17 17 18 18 18 18 18 19 20 20 21 22 23 24 25 25 25 26 26 26 27 27 28 28 28 29
29 28 26 25 24 24 23 22 22 21 20 20 19 19 18 17 17 17 17 17 18 19 19 20 20 20 21 22 22 23 24 24 25 26 27 27 28 28 29 29 30 30 31 32
31 30 28 27 26 25 24 24 23 23 22 21 21 20 20 19 18 18 18 19 19 19 20 21 21 22 22 23 24 24 25 26 27 28 29 30 31 31 32 32 32 33 34 34
32 31 30 29 28 27 26 26 25 24 24 23 23 22 21 21 20 20 20 20 21 21 22 22 23 24 25 25 26 26 27 28 28 29 30 31 32 33 33 34 35 35 36 37
32 32 31 31 29 28 28 27 26 26 25 24 24 24 24 23 23 23 22 22 22 22 23 23 24 24 26 27 28 28 28 29 29 30 31 32 33 33 34 35 36 37 38 38
33 32 32 32 31 29 29 29 28 27 26 25 25 25 25 25 25 25 25 25 24 24 24 25 25 25 26 26 27 28 29 30 30 31 32 33 34 35 36 37 37 39 40 40
35 33 32 32 32 32 31 30 30 28 27 27 26 26 26 26 27 26 26 26 26 26 26 26 27 27 28 29 29 30 31 31 32 33 34 35 36 37 38 39 40 40 41 42
35 35 34 33 33 33 32 31 30 29 29 28 28 27 27 27 27 27 28 28 28 29 29 29 29 29 30 30 31 32 32 33 34 35 36 37 38 39 40 41 42 43 43 44
36 35 35 34 33 33 33 32 32 31 30 30 30 29 29 29 29 29 30 30 30 31 31 31 32 32 32 32 32 33 34 35 36 36 37 38 39 40 41 42 43 44 45 46
36 35 35 35 34 33 33 32 32 32 32 32 31 31 31 31 31 31 31 31 31 31 31 32 32 33 33 34 35 36 37 37 37 38 39 39 40 41 42 43 44 45 46 47
37 36 36 35 34 34 33 32 32 33 33 33 32 32 32 33 32 32 32 32 32 32 32 33 34 34 35 35 36 36 37 37 38 39 39 40 41 42 42 43 44 45 46 48
36 36 36 35 35 34 34 34 34 33 33 33 34 34 34 34 34 34 34 34 33 33 34 34 35 35 36 36 36 36 37 38 39 39 40 41 42 43 43 44 45 46 48 49
35 35 35 35 35 35 35 35 35 35 34 34 34 34 35 35 35 35 34 34 35 35 35 35 35 36 36 37 38 38 39 39 40 41 42 42 43 44 44 46 47 48 49 50
35 35 35 35 35 35 36 36 36 35 35 35 35 35 35 35 35 34 34 34 35 35 35 36 36 37 37 38 39 39 40 41 42 42 43 43 44 45 46 47 48 49 50 51
Wind_Direction
242 243 239 233 232 231 229 222 222 223 227 225 223 218 214 212 210 210 211 212 215 216 216 216 216 217 219 220 219 218 218 219 218 218 219 219 221 224 228 230 233 235 238 245
239 240 240 235 235 233 231 229 226 225 224 222 217 214 212 212 211 210 211 213 216 218 218 217 216 217 219 221 222 221 221 221 220 220 221 223 225 228 231 233 237 240 244 250
235 240 239 238 236 234 231 230 224 219 217 217 217 215 212 212 211 210 211 214 217 219 221 223 224 223 221 223 223 221 221 222 223 223 224 226 229 232 235 237 242 245 248 253
234 236 236 237 236 234 231 226 221 219 221 222 222 220 219 216 213 211 212 215 218 219 221 224 226 226 223 224 224 223 222 224 225 225 227 228 232 236 238 240 244 248 251 254
232 234 234 238 235 232 228 223 223 220 221 223 222 220 217 215 214 215 218 219 220 221 220 221 224 226 224 225 225 224 225 227 228 228 228 229 234 238 240 243 246 250 253 256
233 232 231 233 229 227 227 225 223 218 217 218 216 215 214 214 215 216 218 219 221 223 223 223 223 224 224 225 225 227 228 230 231 232 232 233 237 239 243 247 250 252 254 256
230 231 227 224 224 223 220 222 224 223 220 216 210 210 213 215 219 220 220 220 221 222 223 223 223 224 225 227 227 228 230 233 236 236 236 239 241 244 247 250 253 256 257 258
229 229 224 222 221 221 219 220 220 221 219 217 216 215 217 220 223 222 221 222 222 222 222 222 224 226 227 229 228 230 232 234 237 238 241 244 247 249 251 253 255 257 260 261
226 224 223 222 220 221 220 220 220 220 218 219 220 221 223 224 224 223 222 224 225 226 227 226 227 228 229 228 228 232 234 235 238 241 244 247 250 253 253 254 256 257 260 263
223 223 223 221 222 222 221 220 220 219 219 221 224 226 225 228 227 224 225 226 227 229 229 230 230 230 233 233 234 235 237 239 241 244 247 248 251 254 256 256 258 259 262 265
223 223 225 225 223 223 223 224 223 222 223 226 228 230 232 232 231 230 231 230 231 232 233 233 234 236 237 238 238 239 241 242 244 246 248 250 252 255 257 258 259 261 263 266
222 223 225 225 224 223 224 226 224 224 226 229 231 234 235 234 233 233 235 235 234 236 236 236 238 239 241 242 243 244 245 246 247 248 250 253 255 257 259 260 261 263 265 268
221 222 223 223 223 224 225 226 226 227 228 230 232 234 236 236 236 236 236 238 238 239 239 240 241 242 245 246 247 248 249 249 250 252 254 255 257 259 260 262 264 266 268 270
222 221 222 223 224 225 228 229 230 233 235 236 236 237 240 241 241 240 240 240 242 243 242 243 245 247 248 250 251 251 251 252 252 254 255 257 259 261 263 265 267 268 269 270
221 222 224 224 224 226 229 232 233 234 237 239 240 240 241 242 243 244 244 245 246 246 245 247 250 251 252 253 253 254 255 256 255 256 258 260 261 263 265 267 268 269 271 272
223 224 225 226 227 229 231 233 235 237 239 241 242 242 242 244 245 246 247 248 250 251 251 251 253 255 257 257 258 258 259 259 260 260 260 262 264 265 267 268 270 271 272 274
224 226 228 228 229 231 232 234 235 237 240 241 242 243 244 246 248 250 252 252 253 254 255 255 256 258 259 261 261 262 263 264 265 266 265 266 266 267 269 270 271 273 274 275
224 226 228 229 232 233 233 235 236 238 240 241 242 243 246 248 250 252 254 255 256 257 258 259 260 262 262 263 265 268 269 269 270 270 270 270 270 270 271 272 273 274 275 275
225 227 227 228 229 231 233 235 237 238 240 241 242 244 247 249 252 254 255 255 257 258 261 262 263 264 265 266 267 268 270 271 272 272 273 273 273 273 274 274 275 275 276 276
225 227 228 229 230 231 233 234 236 238 240 242 245 247 249 251 253 255 256 256 257 259 261 263 264 267 268 269 270 271 271 272 273 273 274 275 275 275 275 275 276 276 277 277
226 227 229 230 231 233 233 235 237 239 241 243 246 248 250 252 253 255 256 257 259 260 262 264 266 268 269 270 271 272 272 273 274 275 276 277 277 277 277 277 277 278 278 279
227 228 230 232 234 235 236 237 239 241 243 245 247 249 251 254 255 256 258 260 261 262 264 266 268 269 271 272 272 273 274 275 276 277 278 279 279 279 278 278 279 279 280 280
227 229 231 233 234 236 237 238 240 242 244 247 249 251 254 256 257 259 260 261 262 264 266 267 269 271 272 273 274 275 277 277 278 279 280 280 280 280 281 281 281 282 282 282
228 231 232 233 235 237 238 239 242 243 245 247 250 253 255 257 259 260 262 263 264 265 267 269 271 273 274 275 276 277 278 279 280 281 281 281 282 282 283 283 283 283 284 284
229 231 232 233 236 237 239 241 243 244 247 250 252 254 257 258 260 262 264 265 266 268 270 272 273 274 275 276 276 277 279 280 281 281 282 282 283 283 284 284 284 285 286 286
229 231 233 235 237 239 241 243 245 248 250 252 254 257 259 260 262 263 265 267 269 271 272 274 275 275 276 277 278 279 280 281 282 282 283 283 283 284 284 285 286 286 287 288
232 233 234 235 237 240 242 244 246 249 251 252 255 257 259 260 262 264 267 269 270 272 274 275 276 277 278 279 280 281 281 282 282 283 283 284 285 285 286 286 287 288 288 289
Height
5807 5808 5808 5809 5810 5810 5811 5812 5814 5815 5816 5817 5819 5821 5823 5825 5828 5831 5834 5837 5840 5843 5846 5849 5852 5856 5859 5862 5864 5867 5869 5872 5874 5876 5878 5879 5881 5882 5883 5884 5884 5885 5885 5885
5805 5805 5806 5807 5807 5808 5809 5810 5811 5812 5814 5815 5816 5818 5820 5823 5825 5828 5832 5835 5837 5840 5843 5847 5850 5853 5856 5858 5861 5864 5866 5869 5871 5873 5875 5877 5879 5880 5881 5882 5882 5883 5883 5884
5802 5803 5803 5805 5805 5806 5807 5808 5809 5810 5812 5813 5814 5816 5818 5820 5823 5825 5829 5832 5835 5838 5841 5843 5846 5849 5852 5855 5858 5860 5863 5866 5868 5870 5872 5874 5876 5877 5878 5879 5880 5880 5881 5881
5799 5800 5801 5804 5803 5803 5804 5805 5806 5808 5809 5811 5812 5814 5816 5818 5820 5823 5826 5829 5832 5835 5838 5840 5843 5846 5848 5851 5854 5857 5859 5862 5864 5867 5869 5871 5872 5873 5875 5876 5877 5877 5878 5878
5795 5797 5798 5800 5800 5801 5802 5803 5804 5805 5807 5808 5810 5812 5813 5816 5818 5821 5824 5826 5829 5831 5834 5837 5840 5842 5845 5848 5850 5853 5856 5858 5861 5863 5865 5867 5869 5870 5871 5872 5873 5874 5874 5875
5792 5793 5796 5798 5798 5798 5801 5801 5802 5803 5805 5806 5808 5810 5812 5814 5816 5818 5821 5823 5826 5828 5831 5833 5836 5839 5841 5844 5847 5850 5853 5855 5857 5859 5861 5863 5865 5866 5867 5868 5869 5870 5870 5871
5787 5789 5792 5793 5794 5796 5799 5800 5800 5801 5803 5804 5806 5808 5810 5811 5813 5816 5818 5820 5823 5825 5827 5830 5832 5835 5838 5840 5843 5846 5849 5851 5853 5855 5857 5859 5860 5862 5863 5864 5864 5865 5866 5866
5783 5786 5790 5790 5791 5794 5795 5796 5797 5798 5800 5802 5803 5805 5807 5809 5811 5813 5815 5817 5820 5822 5824 5827 5829 5832 5834 5837 5839 5842 5845 5847 5849 5851 5853 5854 5856 5857 5858 5859 5860 5860 5861 5861
5780 5784 5784 5786 5787 5789 5791 5793 5794 5796 5798 5799 5801 5803 5805 5806 5808 5810 5812 5815 5817 5819 5821 5823 5826 5828 5831 5833 5835 5838 5840 5843 5845 5846 5848 5849 5851 5852 5853 5854 5855 5855 5856 5856
5774 5777 5779 5781 5783 5785 5787 5789 5791 5793 5795 5797 5799 5800 5802 5804 5806 5808 5810 5812 5814 5816 5818 5820 5822 5825 5827 5829 5831 5834 5836 5838 5840 5841 5843 5844 5846 5847 5847 5848 5849 5850 5850 5850
5769 5772 5775 5777 5779 5781 5784 5786 5788 5790 5792 5794 5795 5797 5799 5801 5803 5805 5807 5809 5811 5813 5815 5817 5819 5821 5823 5825 5827 5829 5831 5833 5835 5836 5838 5839 5840 5841 5842 5843 5843 5844 5844 5844
5764 5767 5770 5773 5775 5777 5780 5782 5784 5786 5788 5790 5792 5794 5795 5797 5799 5801 5803 5805 5807 5809 5811 5813 5815 5816 5818 5820 5822 5824 5826 5827 5829 5830 5832 5833 5834 5835 5836 5836 5837 5837 5838 5838
5757 5761 5764 5767 5770 5773 5775 5778 5780 5782 5784 5787 5788 5790 5792 5794 5795 5797 5799 5801 5803 5804 5806 5808 5810 5812 5813 5815 5817 5819 5820 5821 5823 5824 5825 5826 5827 5828 5829 5829 5830 5830 5830 5830
5750 5755 5758 5762 5765 5768 5771 5773 5776 5778 5780 5782 5784 5786 5788 5790 5791 5793 5795 5796 5798 5800 5801 5803 5805 5806 5808 5810 5811 5812 5814 5815 5816 5817 5818 5819 5820 5820 5821 5821 5822 5822 5822 5822
5744 5748 5752 5756 5759 5762 5765 5768 5770 5773 5775 5777 5780 5781 5783 5785 5787 5788 5790 5792 5793 5795 5796 5798 5799 5801 5802 5803 5805 5806 5807 5808 5809 5810 5811 5811 5812 5812 5813 5813 5813 5813 5813 5812
5737 5741 5745 5749 5753 5756 5759 5762 5765 5767 5770 5772 5774 5776 5778 5780 5782 5783 5785 5786 5788 5789 5791 5792 5793 5794 5796 5797 5798 5799 5800 5800 5801 5802 5802 5803 5803 5804 5804 5804 5804 5803 5803 5802
5729 5734 5738 5742 5746 5749 5753 5756 5758 5761 5763 5766 5768 5770 5772 5774 5776 5778 5779 5780 5782 5783 5784 5786 5787 5788 5789 5790 5790 5791 5792 5792 5792 5793 5793 5794 5794 5794 5794 5794 5793 5792 5792 5791
5722 5726 5731 5735 5738 5742 5745 5748 5751 5754 5757 5759 5762 5764 5766 5768 5769 5771 5772 5774 5775 5776 5777 5778 5779 5780 5781 5781 5782 5783 5783 5783 5783 5783 5784 5784 5783 5783 5783 5782 5782 5781 5780 5779
5714 5718 5722 5726 5730 5734 5737 5741 5744 5747 5750 5752 5755 5757 5759 5760 5762 5764 5765 5766 5768 5769 5770 5771 5771 5772 5773 5773 5773 5774 5774 5774 5774 5774 5774 5773 5773 5772 5772 5771 5770 5769 5768 5767
5705 5710 5714 5718 5722 5726 5730 5733 5736 5739 5742 5745 5747 5749 5751 5752 5754 5756 5757 5758 5760 5761 5762 5762 5763 5763 5764 5764 5764 5764 5764 5764 5764 5763 5763 5762 5762 5761 5760 5759 5758 5756 5755 5754
5697 5702 5706 5710 5714 5717 5721 5725 5728 5731 5734 5737 5739 5741 5743 5744 5746 5747 5748 5750 5751 5752 5752 5753 5753 5754 5754 5754 5754 5754 5753 5753 5753 5752 5751 5750 5749 5748 5747 5746 5744 5743 5741 5740
5689 5693 5697 5701 5705 5709 5713 5716 5720 5723 5725 5728 5730 5732 5734 5736 5737 5738 5739 5741 5741 5742 5743 5743 5743 5743 5743 5743 5743 5743 5742 5742 5741 5740 5739 5738 5736 5735 5733 5732 5730 5728 5726 5725
5680 5684 5689 5693 5697 5700 5704 5707 5710 5713 5716 5719 5721 5723 5725 5726 5728 5729 5730 5731 5731 5732 5732 5733 5733 5733 5733 5732 5732 5731 5730 5729 5728 5727 5726 5724 5723 5721 5719 5717 5715 5713 5711 5709
5672 5676 5680 5684 5688 5691 5695 5698 5701 5704 5707 5709 5711 5713 5715 5717 5718 5719 5720 5720 5721 5721 5722 5722 5722 5721 5721 5720 5719 5718 5718 5717 5715 5714 5712 5711 5709 5707 5705 5703 5700 5698 5695 5693
5662 5666 5671 5675 5679 5682 5686 5689 5692 5694 5697 5699 5701 5703 5705 5706 5707 5708 5709 5710 5710 5710 5711 5710 5710 5710 5709 5708 5707 5706 5705 5704 5702 5701 5699 5697 5695 5693 5691 5688 5686 5683 5680 5677
5653 5657 5661 5665 5669 5673 5676 5679 5682 5684 5687 5689 5691 5692 5694 5695 5696 5697 5698 5698 5699 5699 5699 5698 5698 5698 5697 5696 5695 5694 5692 5691 5689 5687 5685 5683 5681 5678 5676 5673 5670 5667 5664 5661
5644 5648 5652 5656 5659 5663 5666 5669 5672 5674 5676 5678 5680 5682 5683 5684 5685 5685 5686 5686 5687 5687 5687 5686 5686 5685 5684 5683 5682 5681 5679 5677 5676 5673 5671 5669 5666 5664 5661 5658 5655 5651 5648 5644